Preview of NWS' New Version of Forecast
This preview is not operational and should not be used for support decisions.

Regional Weather Roundup (RWR)

Issued by National Weather Service (NWS)

                            
000
ASPQ40 PGUM 240710
RWRPQ 
WEATHER ROUNDUP FOR THE MARIANAS AND MICRONESIA
NATIONAL WEATHER SERVICE TIYAN GU
500 PM CHST MON JUN 24 2019

GUZ001>004-240800-
MARIANA ISLANDS-
  
CITY           SKY/WX    TMP DP  RH WIND       PRES   REMARKS
GUAM AIRPORT   PTSUNNY   84  73  70 SE6       29.89R HX  91           
ANDERSEN AFB   PTSUNNY   84  75  74 E16       29.89S HX  92           
ROTA AIRPORT   MOSUNNY   84  73  70 E18       29.88R HX  91           
TINIAN AP      MOSUNNY   88  75  66 E16       29.87S HX  97           
SAIPAN AP      SUNNY     88  75  66 E15       29.88S HX  97           

$$

PMZ161-240800-
REPUBLIC OF PALAU-
  
CITY           SKY/WX    TMP DP  RH WIND       PRES   REMARKS
KOROR AP       CLOUDY    84  77  79 SW6       29.80S HX  94           
KOROR WSO      NOT AVBL                                               

$$

PMZ171>174-240800-
FEDERATED STATES OF MICRONESIA-
  
CITY           SKY/WX    TMP DP  RH WIND       PRES   REMARKS
YAP AIRPORT    PTSUNNY   88  79  74 VRB2      29.82F HX 102           
CHUUK AP       LGT RAIN  82  79  89 VRB6      29.81R HX  93           
POHNPEI AP     NOT AVBL                                               
POHNPEI WSO    CLOUDY    82  77  83 E5        29.85R HX  91           
KOSRAE AP      NOT AVBL                                               

$$

PMZ181-240800-
REPUBLIC OF THE MARSHALL ISLANDS-
  
CITY           SKY/WX    TMP DP  RH WIND       PRES   REMARKS
KWAJALEIN AP   PTCLDY    82  81  94 NE8       29.86R HX  95           
MAJURO AP      MOCLDY    82  77  83 N9        29.86  HX  91           
MAJURO WSO     MOCLDY    81  77  89 CALM      29.86R                  

$$